Location: Greenwich
(51.4790°N, 0.0090°E)
Time: 13:31:15
(UTC+01:00)

Envisat - Visible Passes

Search period start: 21 September 2021 00:00
Search period end: 01 October 2021 00:00
Orbit: 764 x 766 km, 98.2° (Epoch: 20 September)

Date Brightness Start Highest point End Pass type
(mag) Time Alt. Az. Time Alt. Az. Time Alt. Az.
21 Sep 4.4 05:46:22 10° NNE 05:51:11 42° E 05:55:59 10° SSE visible
22 Sep 5.6 05:10:07 10° NE 05:14:00 22° E 05:17:54 10° SE visible
23 Sep 6.3 04:35:27 10° ENE 04:36:37 11° E 04:37:47 10° E visible
23 Sep 3.5 06:11:33 10° NNE 06:16:38 67° ESE 06:21:41 10° S visible
24 Sep 4.8 05:34:58 10° NNE 05:39:36 34° E 05:44:13 10° SSE visible
25 Sep 5.9 04:58:57 10° NE 05:02:22 18° E 05:05:46 10° SE visible
26 Sep 3.9 06:00:05 10° NNE 06:05:05 55° E 06:10:04 10° S visible
27 Sep 5.2 05:23:37 10° NE 05:28:00 28° E 05:32:20 10° SSE visible
28 Sep 6.0 04:47:56 10° NE 04:50:41 14° E 04:53:26 10° ESE visible
29 Sep 4.3 05:48:38 10° NNE 05:53:32 44° E 05:58:22 10° S visible
30 Sep 5.5 05:12:20 10° NE 05:16:22 23° E 05:20:23 10° SE visible
